Regional Weather Roundup
Issued by NWS

Home | Current Version | Previous Version | Text Only | Print | Product List | Glossary Off
Versions: 1 2 3 4 5 6 7 8 9 10 11 12 13 14 15 16 17 18 19 20 21 22 23 24 25 26 27 28 29 30 31 32 33 34 35 36 37 38 39 40 41 42 43 44 45 46 47 48 49 50

000
ASUS43 KIND 211100
RWRIN

WEATHER ROUNDUP FOR INDIANA
NATIONAL WEATHER SERVICE INDIANAPOLIS IN
700 AM EDT MON MAY 21 2018

NOTE: "FAIR" INDICATES FEW OR NO CLOUDS BELOW 12,000 FEET WITH NO
SIGNIFICANT WEATHER AND/OR OBSTRUCTIONS TO VISIBILITY.

* - STATION DOES NOT REPORT WEATHER SUCH AS PRECIPITATION OR FOG.

+ - STATION NOT QUALITY CONTROLLED BY THE NATIONAL WEATHER SERVICE.
    USE DATA WITH CAUTION...ESPECIALLY DEWPOINT AND RELATIVE
    HUMIDITY OBSERVATIONS.

INZ001>003-010>013-019-020-211200-
NORTHWEST INDIANA

CITY           SKY/WX    TMP DP  RH WIND       PRES   REMARKS
GARY /AIRPORT/ CLOUDY    52  52 100 NE5       30.12F FOG
MICHIGAN CITY+ FAIR      59  59 100 E5        30.13S
MONTICELLO +   MOCLDY    61  58  89 E8        30.10S
RENSSELAER +   MOCLDY    61  55  82 NE9       30.10S HAZE

$$

LMZ046-743>745-211200-
SOUTHERN LAKE MICHIGAN

STATION/POSITION TIME  TEMP    WIND        PRES    WAVE
                       AIR SEA DIR/SP/G            HT
                 (UTC) (F)     (DEG/KT/KT) (MB)    (FT)
BURNS HARBOR     1040   53        CALM     1020.3F
5NW MICH CITY    1050   53 53   80/  6/  8   N/A     2

$$

INZ004-005-014>016-021>024-211200-
NORTH CENTRAL INDIANA

CITY           SKY/WX    TMP DP  RH WIND       PRES   REMARKS
ELKHART        FAIR      59  57  94 E7        30.16  FOG
GOSHEN         CLOUDY    59  56  89 E12       30.16R FOG
SOUTH BEND     CLOUDY    59  57  93 E8        30.16S

$$

INZ006>009-017-018-025>027-211200-
NORTHEAST INDIANA

CITY           SKY/WX    TMP DP  RH WIND       PRES   REMARKS
ANGOLA *+      CLOUDY    55  54  94 E13       30.18R
FORT WAYNE     CLOUDY    57  55  93 E12       30.18F FOG

$$

INZ028-029-035-036-043>045-051>053-211200-
WEST CENTRAL INDIANA

CITY           SKY/WX    TMP DP  RH WIND       PRES   REMARKS
CRAWFORDSVL +  FAIR      62  62 100 E3        30.09S
GREENCASTLE +  FAIR      64  63  94 CALM      30.09S
LAFAYETTE      FAIR      62  59  90 E8        30.10R
TERRE HAUTE    FAIR      64  63  96 CALM      30.07R FOG

$$

INZ030>032-037>040-046>048-054>057-064-065-211200-
CENTRAL INDIANA

CITY           SKY/WX    TMP DP  RH WIND       PRES   REMARKS
ANDERSON       FAIR      60  56  87 CALM      30.13S FOG
COLUMBUS       CLEAR     64  63  94 CALM      30.11
INDIANAPOLIS   MOCLDY    66  62  87 E9        30.10R
-EAGLE CREEK   FAIR      65  60  84 E7        30.10R
KOKOMO +       FAIR      59  56  89 E12       30.14R
MT COMFORT *+  FAIR      61  61 100 E6        30.12R
SHELBYVILLE    FAIR      65  61  87 E10       30.10R

$$

INZ033-034-041-042-049-050-058-059-211200-
EAST CENTRAL INDIANA

CITY           SKY/WX    TMP DP  RH WIND       PRES   REMARKS
MUNCIE         MOCLDY    62  57  83 E8        30.13S
RICHMOND +     FAIR      59  59 100 E8        30.14R FOG

$$

INZ060-061-067>069-081>083-085>088-211200-
SOUTHWEST INDIANA

CITY           SKY/WX    TMP DP  RH WIND       PRES   REMARKS
EVANSVILLE     FAIR      69  65  86 SE3       30.10R
HUNTINGBURG +  FAIR      66  65  96 SE6       30.11S

$$

INZ062-063-066-070>080-084-089>092-211200-
SOUTH CENTRAL AND SOUTHEAST INDIANA

CITY           SKY/WX    TMP DP  RH WIND       PRES   REMARKS
BLOOMINGTON    FAIR      65  63  93 S3        30.10R
FRENCH LICK *+ FAIR      64 N/A N/A CALM      30.12S
SEYMOUR +      FAIR      66  64  94 CALM      30.10R FOG

$$




USA.gov is the U.S. government's official web portal to all federal, state and local government web resources and services.